Location: Friskala
(60.3969°N, 22.2389°E)
Time: 19:58:56
(UTC+00:00)

Daily predictions for brighter satellites

Satellite Brightness Start Highest point End
(mag) Time Altitude Azimuth Time Altitude Azimuth Time Altitude Azimuth
Cosmos 1536 Rocket 3.6 16:58:54 10° N 17:03:22 67° ENE 17:07:49 10° SSE
SPOT 3 Rocket 4.4 17:00:56 10° ESE 17:05:28 32° NE 17:10:01 10° N
NOSS 3-1 (C) 3.8 16:59:58 10° WSW 17:06:04 76° NNW 17:13:27 10° ENE
CZ-4B R/B 2.9 17:02:58 10° N 17:06:16 43° WNW 17:09:34 10° SW
Cosmos 2026 Rocket 4.4 17:02:26 10° N 17:08:32 45° ENE 17:14:38 10° SE
ARIANE 5 R/B 4.3 17:05:43 10° E 17:08:34 17° NE 17:11:27 10° N
Cosmos 1092 Rocket 4.2 17:02:46 10° N 17:08:48 52° ENE 17:14:50 10° SE
Cosmos 1125 Rocket 4.5 17:05:19 10° SSE 17:09:39 26° E 17:14:00 10° NE
H-2A R/B 4.4 17:08:54 10° N 17:12:50 30° NW 17:16:43 10° WSW
Cosmos 1464 Rocket 4.1 17:07:57 10° S 17:13:55 56° E 17:20:01 10° NNE
ADEOS Rocket 3.8 17:10:03 10° NNE 17:15:24 50° WNW 17:20:42 10° SW
GP-B 4.3 17:11:54 10° N 17:16:12 48° W 17:20:28 10° SSW
Resurs 1-3 4.5 17:12:23 10° ESE 17:16:17 32° ENE 17:20:12 10° N
CZ-2C R/B 3.6 17:11:56 10° S 17:17:26 74° WSW 17:23:13 10° NNW
NOSS 2-3 (E) 4.3 17:12:58 10° WSW 17:17:46 77° NNW 17:23:59 10° ENE
SJ-6B 3.2 17:14:29 10° SE 17:18:04 43° ENE 17:21:44 10° N
Cosmos 1674 2.7 17:14:20 10° N 17:18:12 64° ENE 17:22:01 10° SSE
SJ-11-01 4.5 17:13:51 10° SSE 17:18:34 80° WSW 17:23:18 10° NNW
CZ-4 R/B 2.8 17:16:09 10° S 17:20:11 45° W 17:24:11 10° NNW
MOS 1 Rocket 3.6 17:16:23 10° NNE 17:20:33 38° E 17:24:35 10° SSE
PSLV R/B 4.1 17:16:47 10° NNE 17:20:59 81° WNW 17:25:12 10° SSW
Cosmos 2084 3.9 17:16:54 10° W 17:21:20 63° N 17:25:49 10° E
Cosmos 1782 Rocket 3.9 17:17:40 10° SSW 17:22:07 76° WNW 17:26:38 10° NNE
Cosmos 1461 3.7 17:17:29 10° WNW 17:22:09 54° NNE 17:26:46 10° E
Okean-O 4.2 17:18:22 10° S 17:22:34 40° W 17:26:49 10° NNW
In-Cosmos 22 4.5 17:20:06 10° NNW 17:25:23 69° WSW 17:30:42 10° S
CZ-2C R/B 3.5 17:23:24 10° NNE 17:28:16 30° E 17:33:09 10° SSE
Cosmos 990 Rocket 4.4 17:26:44 10° SW 17:31:51 66° NW 17:37:02 10° NNE
ARGOS 3.3 17:27:07 10° SSE 17:32:30 84° WSW 17:37:57 10° NNW
NOSS 2-2 (C) 3.7 17:29:50 10° SSW 17:33:19 42° SE 17:37:29 10° ENE
Cosmos 2082 Rocket 2.5 17:28:49 10° NW 17:34:22 56° NE 17:39:26 12° ESE
FREGAT/IRIS 2.5 17:33:49 10° SE 17:36:21 47° ENE 17:38:54 10° N
MOS 1 4.3 17:33:03 10° SSE 17:38:45 74° ENE 17:44:28 10° NNW
Cosmos 1891 Rocket 4.4 17:34:02 10° S 17:40:06 80° E 17:46:10 10° NNE
Lacrosse 5 rocket 1.8 17:37:15 10° W 17:41:30 56° S 17:45:05 15° ESE
Cosmos 1340 Rocket 4.2 17:39:39 12° SE 17:42:11 20° E 17:45:09 10° NE
Cosmos 2151 Rocket 3.6 17:38:18 10° S 17:42:44 63° E 17:47:14 10° NNE
Cosmos 2297 Rocket 3.7 17:37:38 10° W 17:42:47 34° NNW 17:47:57 10° NE
NOSS 2-3 (D) 4.4 17:39:32 10° W 17:44:24 71° NNW 17:50:43 10° ENE
Cosmos 1733 4.1 17:41:09 10° SSE 17:44:26 28° E 17:47:43 10° NNE
COSMO-SKYMED 1 3.5 17:41:42 10° N 17:45:57 53° WNW 17:50:12 10° SW
Meteor 1-15 Rocket 4.4 17:42:56 10° S 17:48:28 53° E 17:54:06 10° NNE
Nadezhda 4 Rocket 4.2 17:43:23 10° NNW 17:49:30 73° W 17:55:36 10° S
Cosmos 1269 Rocket 4.3 17:47:16 10° NW 17:52:35 71° WSW 17:57:53 10° SSE
NOSS 8 (E) 4.2 17:52:31 10° WSW 17:55:32 81° NNW 17:58:34 12° ENE
Ariane Rocket 3.1 17:50:31 10° SSE 17:55:37 84° WSW 18:00:46 10° NNW
Cosmos 1805 3.5 17:52:12 10° SSE 17:55:56 44° E 17:59:43 10° NNE
USA 116 3.6 17:52:51 10° NNE 17:56:20 83° WNW 18:00:13 10° SSW
H-2A R/B 3.0 17:51:55 10° S 17:56:50 49° W 18:01:54 10° NNW
NOSS 8 (H) 4.1 17:53:51 10° WSW 17:56:51 81° SSE 17:59:50 13° ENE
SL-08 RB Rocket 4.0 17:53:09 10° S 17:57:42 72° WSW 18:02:14 10° NNW
Cosmos 909 Rocket 4.1 17:50:51 10° NW 17:57:52 88° NNE 18:03:01 16° SE
OBJECT-B 0.9 17:55:36 15° SE 17:58:08 57° ENE 18:01:23 10° N
KORONAS-FOTON 4.5 17:55:34 10° NNW 17:59:28 59° W 18:03:19 10° S
SJ 16-02 3.4 17:55:51 10° WSW 17:59:44 30° NW 18:03:39 10° NNE
COSMOS 2406 3.4 17:54:29 10° NW 18:00:11 73° SW 18:05:51 10° SSE
Okean 1-7 Rocket 4.0 17:56:34 10° N 18:01:02 48° ENE 18:04:23 17° SE
Exosat Rocket 3.9 17:57:10 10° S 18:01:54 40° ESE 18:06:43 10° NE
Cosmos 407 Rocket 4.4 17:58:03 10° NNW 18:02:47 35° NE 18:06:03 18° E
Cosmos 2263 Rocket 2.7 17:57:35 10° WSW 18:03:08 62° NW 18:08:45 10° NE
Cosmos 1626 2.0 18:00:04 10° NNW 18:03:48 83° ENE 18:07:28 10° SSE
MetOp-A 4.2 18:00:40 10° SSE 18:06:03 86° WSW 18:11:28 10° NNW
Terra 3.5 18:03:57 14° E 18:06:15 20° NE 18:09:39 10° N
USA 229 DEB 4.0 18:00:28 10° W 18:07:17 70° N 18:14:14 12° E
USA 229 4.0 18:00:34 10° W 18:07:23 70° N 18:14:20 12° E
Cosmos 1844 Rocket 2.7 18:02:00 10° SSW 18:07:29 59° ESE 18:13:01 10° NE
Cosmos 372 Rocket 4.1 18:04:03 10° SW 18:09:18 83° NW 18:14:33 10° NNE
USA 290 3.7 18:06:46 10° NNW 18:09:29 24° NE 18:10:37 20° ENE
Meteor 2-5 Rocket 3.9 18:04:19 10° NNW 18:09:58 76° WSW 18:15:42 10° S
NOSS 2-3 (C) 4.5 18:05:59 10° W 18:10:58 67° N 18:17:06 12° ENE
SPOT 1/Viking Rocket 4.3 18:08:05 20° ESE 18:11:06 36° NE 18:15:48 10° N
Cosmos 1455 Rocket 4.1 18:10:13 22° ESE 18:11:31 26° E 18:15:07 10° NNE
Cosmos 2278 Rocket 3.3 18:10:00 18° SE 18:12:02 22° ESE 18:16:14 10° NE
Cosmos 2266 Rocket 4.4 18:06:25 10° N 18:12:10 42° ENE 18:15:59 20° SE
ATLAS CENTAUR R/B 2.0 18:08:56 10° WNW 18:12:32 42° N 18:15:07 16° ENE
Meteor 1-24 Rocket 3.7 18:07:03 10° NNW 18:12:36 87° WSW 18:18:19 10° SSE
Lacrosse 4 Rocket 1.3 18:09:57 10° NW 18:14:02 80° SW 18:16:33 22° SE
ISS -2.0 18:11:51 10° SW 18:14:18 19° S 18:14:49 18° SSE
Cosmos 1844 3.7 18:09:25 10° SSW 18:14:57 56° ESE 18:20:27 10° NE
Cosmos 2034 Rocket 4.1 18:08:39 10° SSW 18:15:01 89° WNW 18:21:23 10° NNE
USA 186 2.9 18:12:30 10° S 18:15:40 45° W 18:18:53 10° NNW
NOSS 3-4 (A) 4.1 18:11:23 10° S 18:16:33 31° ESE 18:22:04 10° ENE
NOSS 3-4 (C) 4.1 18:11:31 10° S 18:16:40 31° ESE 18:22:10 10° ENE
NOSS 3-1 (A) 3.9 18:13:13 10° W 18:19:28 70° N 18:26:34 12° ENE
SL-14 R/B 3.4 18:18:53 10° NNW 18:22:50 76° WSW 18:26:27 12° S
Cosmos 1300 Rocket 4.4 18:19:15 10° SSW 18:23:36 53° WNW 18:28:00 10° N
Cosmos 614 Rocket 4.3 18:19:02 10° NNW 18:24:07 52° NE 18:26:53 25° ESE
CENTAUR R/B 4.4 18:17:16 10° WNW 18:24:12 35° WSW 18:31:47 10° S
Cosmos 1833 Rocket 3.0 18:20:01 10° NW 18:25:38 66° WSW 18:30:12 16° SSE
Cosmos 2292 Rocket 3.4 18:23:09 10° N 18:25:55 33° ENE 18:26:07 33° ENE
Okean 1 Rocket 3.0 18:22:09 10° S 18:26:39 78° ESE 18:31:10 10° NNE
Resurs 01 Rocket 1.6 18:25:52 21° SSE 18:28:50 74° ENE 18:33:18 10° NNW
NOSS 2-2 (E) 3.4 18:25:11 10° WSW 18:29:00 87° SSE 18:33:41 11° ENE
Cosmos 2251 Rocket 3.5 18:24:22 10° NNW 18:29:48 85° NE 18:33:14 23° SE
CZ-2C R/B 4.3 18:26:15 10° NNE 18:30:21 34° E 18:31:44 28° SE
Cosmos 2298 Rocket 4.1 18:25:15 10° SW 18:30:36 81° WNW 18:36:00 10° NNE
OPS 8737 4.4 18:32:49 10° WNW 18:35:38 55° NNE 18:36:25 39° ENE
Cosmos 1726 3.9 18:37:32 18° ENE 18:37:32 18° ENE 18:39:09 10° NE
ATLAS 3B R/B 3.3 18:30:48 10° WNW 18:37:19 51° SW 18:42:35 17° SSE
Cosmos 1470 3.3 18:37:10 35° ESE 18:37:27 36° E 18:41:02 10° NNE
Cosmos 1766 3.2 18:33:38 10° S 18:37:35 85° ESE 18:41:36 10° NNE
Okean 2 Rocket 4.5 18:34:00 10° SW 18:38:15 42° WNW 18:42:31 10° N
NOSS 2-2 (D) 3.3 18:35:05 10° WSW 18:38:51 87° SSE 18:42:56 14° ENE
ATLAS 2AS CENTAUR R/B 3.3 18:31:59 10° SSW 18:39:20 43° SE 18:46:34 10° ENE
ERS-1 Rocket 3.6 18:37:39 27° ESE 18:39:40 39° ENE 18:44:20 10° N
Cosmos 2227 Rocket 3.9 18:36:37 10° WNW 18:41:31 29° N 18:46:27 10° NE
Cosmos 1634 Rocket 3.9 18:36:31 10° S 18:42:40 76° E 18:48:54 10° NNE
Aureole 1 Rocket 4.5 18:38:29 10° NNW 18:43:53 35° NNE 18:46:00 24° E
IGS 5A 3.6 18:42:30 36° SE 18:43:58 57° ENE 18:48:03 10° N
ARIANE 5 R/B 2.6 18:42:31 33° SE 18:44:22 66° ENE 18:48:42 10° NNW
SPOT 3 Rocket 3.7 18:40:10 14° S 18:44:34 72° WSW 18:49:46 10° NNW
Meteor 1-21 Rocket 4.3 18:41:52 10° NNW 18:47:38 69° ENE 18:50:49 28° SE
Cosmos 1892 Rocket 3.9 18:43:49 10° NNW 18:48:07 63° W 18:51:24 17° S
Cosmos 1190 Rocket 4.4 18:43:29 10° NNW 18:48:38 50° NE 18:50:48 31° ESE
Cosmos 1655 Rocket 4.0 18:42:20 10° NNW 18:48:39 77° ENE 18:52:53 22° SSE
Cosmos 1758 Rocket 4.4 18:44:47 10° N 18:48:56 34° ENE 18:49:51 31° E
Landsat 7 3.8 18:49:05 33° SE 18:51:11 68° ENE 18:55:56 10° NNW
Cosmos 1125 Rocket 3.6 18:45:54 10° SW 18:51:14 84° NW 18:56:36 10° NNE
Resurs 1-3 4.2 18:48:54 15° S 18:52:27 56° WSW 18:56:49 10° NNW
SJ-6B 4.5 18:49:28 10° SSW 18:52:51 31° W 18:56:19 10° NNW
SPOT 5 3.5 18:54:34 33° ESE 18:56:29 47° ENE 19:01:37 10° NNW
CARTOSAT-1 4.0 18:56:13 38° E 18:57:07 44° ENE 19:01:14 10° N
NOSS 3-1 (C) 3.9 18:51:02 10° WNW 18:57:32 73° N 19:02:40 23° E
Cosmos 1953 3.7 18:58:56 24° ENE 18:58:56 24° ENE 19:01:15 10° NNE
MOS 1 Rocket 4.4 18:54:42 10° N 18:58:57 43° WNW 19:03:02 10° SW
Cosmos 2084 3.5 18:56:38 10° WNW 19:01:08 88° NNE 19:02:29 45° ESE
Cosmos 1461 3.2 18:56:46 10° WNW 19:01:34 77° SW 19:03:08 42° SE
SL-27 R/B 4.1 18:59:06 10° NNW 19:02:03 23° NE 19:02:27 22° NE
Cosmos 2285 Rocket 4.0 18:55:45 10° SSW 19:02:06 89° WNW 19:08:33 10° NNE
Cosmos 1544 Rocket 3.7 19:04:34 47° ESE 19:04:51 48° E 19:09:02 10° NNE
Cosmos 1328 4.2 19:05:10 10° N 19:09:02 44° ENE 19:09:09 44° ENE
CZ-2C R/B 2.9 19:03:32 10° NNE 19:09:04 75° WNW 19:14:41 10° SSW
CRYOSAT 2 4.3 19:04:32 10° N 19:09:29 82° E 19:12:04 28° S
deb Kosmos-1763 4.1 19:09:09 10° NW 19:12:47 68° WSW 19:13:11 61° SSW
TSX-5 4.2 19:08:39 10° SSW 19:12:59 67° SE 19:18:39 10° NE
Cosmos 2180 Rocket 4.4 19:12:35 21° S 19:16:59 71° E 19:23:22 10° NNE
USA 245 4.4 19:18:26 22° NNW 19:18:26 22° NNW 19:19:25 10° NNW
Cosmos 2098 Rocket 4.1 19:10:29 10° NNW 19:17:36 78° W 19:21:19 25° S
Cosmos 1758 3.2 19:17:38 66° ESE 19:17:47 67° E 19:21:50 10° NNE
H-2A R/B 4.4 19:14:14 10° NNE 19:17:14 33° ENE 19:17:14 33° ENE
Cosmos 1340 Rocket 3.0 19:15:12 17° SSW 19:18:13 72° WNW 19:22:17 10° NNE
Cosmos 2082 Rocket 2.8 19:13:05 10° NW 19:18:31 50° WSW 19:21:16 27° S
DMSP B5D2-2 4.3 19:13:40 10° NNE 19:18:58 71° WNW 19:24:14 10° SSW
Cosmos 2279 Rocket 3.9 19:12:59 10° S 19:19:15 85° E 19:25:34 10° NNE
Cosmos 1733 4.2 19:16:15 10° SW 19:19:57 46° WNW 19:23:40 10° N
Lacrosse 5 rocket 2.3 19:16:15 10° W 19:20:19 36° SSW 19:20:43 35° SSW
MetOp-B 4.3 19:17:29 28° S 19:20:21 68° WSW 19:25:43 10° NNW
Uosat 12 SS-18 rocket 4.0 19:18:18 10° WNW 19:22:39 79° SW 19:23:30 58° SE
Meteor 2-21 4.4 19:16:55 10° NNW 19:23:10 75° ENE 19:25:35 39° SSE
NOSS 2-2 (C) 3.7 19:19:50 10° W 19:23:43 71° NNW 19:26:24 25° ENE
Cosmos 1023 Rocket 4.4 19:18:55 10° NNW 19:24:03 74° NE 19:25:17 51° ESE
Cosmos 1953 Rocket 4.2 19:21:50 10° N 19:25:56 38° ENE 19:25:56 38° ENE
Spot 2 Rocket 3.5 19:25:14 40° S 19:27:06 77° WSW 19:32:12 10° NNW
Cosmos 1809 Rocket 4.4 19:21:13 10° NNW 19:27:28 86° ENE 19:30:02 38° SSE
Cosmos 1602 Rocket 3.5 19:23:17 10° NNW 19:27:42 84° W 19:28:36 57° S
Cosmos 2297 Rocket 3.8 19:23:25 10° NW 19:28:21 29° N 19:32:54 12° ENE
COSMOS 2455 4.2 19:31:30 23° ENE 19:31:30 23° ENE 19:34:09 10° ENE
OBJECT-B 3.4 19:28:48 12° SW 19:30:49 18° W 19:33:12 10° NW
Cosmos 1626 Rocket 4.1 19:34:56 10° NNW 19:39:18 56° W 19:40:32 41° SSW
SJ 16-02 4.3 19:37:18 10° NW 19:39:44 14° NNW 19:42:09 10° NNE
Cosmos 1140 Rocket 3.3 19:35:10 10° NNW 19:40:22 88° ENE 19:41:18 61° SE
Terra 1.7 19:42:51 63° ESE 19:43:19 68° ENE 19:48:05 10° NNW
USA 290 3.4 19:40:59 10° NW 19:43:23 42° WNW 19:43:23 42° WNW
Cosmos 407 Rocket 3.5 19:40:06 10° NW 19:45:16 76° WSW 19:46:14 57° S
Cosmos 2263 Rocket 3.9 19:43:03 10° W 19:48:04 32° NNW 19:53:07 10° NE
Meteor 2-14 Rocket 4.4 19:42:15 10° NNW 19:48:27 86° WSW 19:50:29 45° S
Cosmos 1455 Rocket 3.4 19:47:18 34° SW 19:49:04 61° WNW 19:53:25 10° N
SPOT 1/Viking Rocket 3.9 19:48:44 41° SSW 19:50:21 61° WSW 19:55:30 10° NNW
Cosmos 1844 Rocket 3.5 19:46:09 10° WSW 19:51:36 50° NW 19:57:05 10° NE
ATLAS CENTAUR R/B 1.6 19:48:07 10° WNW 19:51:16 57° NNW 19:51:16 57° NNW
Lacrosse 4 Rocket 3.4 19:49:16 10° WNW 19:52:09 19° WSW 19:52:52 18° SW
Cosmos 1825 4.5 19:51:47 10° NNE 19:53:33 16° NE 19:53:33 16° NE
Cosmos 2278 Rocket 2.0 19:51:32 22° SSW 19:55:20 76° SE 20:01:01 10° NE
Cosmos 1954 Rocket 3.8 19:50:27 10° NNW 19:55:41 79° NE 19:56:16 69° ESE
Cosmos 676 Rocket 3.8 19:52:26 10° NNW 19:57:42 81° ENE 19:58:16 70° ESE
Cosmos 2266 Rocket 4.4 19:51:49 10° NNW 19:57:43 56° W 20:00:33 30° SSW
USA 229 DEB 3.8 19:51:46 10° WNW 19:58:47 82° NNE 20:01:38 42° ESE
USA 229 3.8 19:51:51 10° WNW 19:58:53 82° NNE 20:01:44 41° ESE
Cosmos 1844 4.4 19:53:43 10° WSW 19:59:14 52° NW 20:04:45 10° NE
Cosmos 1703 3.7 19:57:34 10° NNW 20:01:07 57° WNW 20:01:07 57° WNW
Cosmos 1850 Rocket 4.4 19:57:04 10° NNW 20:02:09 50° NE 20:02:47 48° ENE
NOSS 2-3 (C) 4.5 19:56:43 10° WNW 20:02:15 79° NNE 20:04:30 44° E
Exosat Rocket 4.4 19:58:24 10° WSW 20:03:16 50° NW 20:08:35 10° NE
Meteor 2-16 Rocket 4.3 19:58:30 10° NNW 20:04:41 89° ENE 20:06:04 57° SSE
Resurs 01 Rocket 3.7 20:03:26 15° SW 20:05:49 23° W 20:09:24 10° NW
NOSS 3-4 (A) 3.3 20:00:36 10° SW 20:06:41 78° SSE 20:13:24 10° ENE
NOSS 3-4 (C) 3.3 20:00:43 10° SW 20:06:47 78° SSE 20:13:30 10° ENE
CZ-2C R/B 4.4 20:03:21 10° NNE 20:07:41 51° WNW 20:09:58 26° SW
NOSS 3-1 (A) 3.8 20:04:15 10° WNW 20:10:58 81° NNE 20:13:58 41° ESE
Cosmos 1726 3.1 20:12:01 45° NNW 20:12:01 45° NNW 20:14:54 10° N
Cosmos 1470 4.2 20:12:29 30° W 20:13:32 36° WNW 20:17:10 10° N
ERS-1 Rocket 3.4 20:17:39 49° SW 20:18:23 54° WSW 20:23:22 10° NNW
NOSS 2-2 (E) 4.1 20:15:43 10° W 20:19:53 61° N 20:21:01 47° NE
ARIANE 5 R/B 4.3 20:20:05 22° WSW 20:21:14 25° W 20:24:51 10° NW
Cosmos 1825 Rocket 4.0 20:20:31 10° NNW 20:24:37 59° W 20:24:37 59° W
Cosmos 1758 Rocket 4.3 20:22:39 10° NNW 20:27:00 49° W 20:27:00 49° W
Cosmos 2227 Rocket 3.6 20:21:59 10° NW 20:27:06 33° NNE 20:29:53 22° ENE
Aureole 1 Rocket 3.4 20:23:26 10° NW 20:28:35 68° W 20:28:35 68° W
NOSS 2-2 (D) 4.1 20:25:38 10° W 20:29:43 61° N 20:30:18 55° NE
ATLAS 2AS CENTAUR R/B 2.9 20:21:54 10° WSW 20:29:55 87° SSE 20:37:39 10° ENE
Cosmos 1340 4.3 20:27:52 10° N 20:30:06 30° NNE 20:30:06 30° NNE
SL-08 ROCKET BODY 4.2 20:25:52 10° NNW 20:31:47 80° ENE 20:32:12 75° SE
Cosmos 1953 3.3 20:34:37 45° NW 20:34:37 45° NW 20:37:58 10° N
SPOT 5 3.7 20:33:48 45° SW 20:34:35 48° W 20:39:48 10° NNW
SL-27 R/B 4.3 20:33:57 10° NNW 20:35:59 31° NW 20:35:59 31° NW
Cosmos 1833 4.1 20:32:08 10° NW 20:37:57 87° SW 20:38:10 83° SSE
Cosmos 1943 Rocket 3.6 20:42:33 25° ENE 20:42:33 25° ENE 20:45:07 10° NE
Cosmos 1386 Rocket 4.3 20:34:37 10° NNW 20:40:52 81° ENE 20:41:29 73° SE
Cosmos 2058 4.1 20:39:12 10° N 20:42:05 38° NNE 20:42:05 38° NNE
Cosmos 1553 Rocket 4.0 20:46:30 65° ESE 20:46:40 66° E 20:53:03 10° NNE
NOSS 3-1 (C) 3.8 20:41:51 10° WNW 20:48:44 75° SW 20:50:02 62° SSE
Cosmos 2219 4.2 20:44:24 10° NW 20:49:47 41° NNE 20:51:26 33° ENE
CZ-4C R/B 3.3 21:00:08 35° ENE 21:00:08 35° ENE 21:04:01 10° ENE
Cosmos 1745 Rocket 3.8 20:51:43 10° NNW 20:57:53 81° W 20:58:16 76° SSW
Lacrosse 5 rocket 4.2 20:56:05 10° W 20:56:20 11° WSW 20:56:20 11° WSW
NOSS 2-3 (E) 4.4 20:54:20 10° WNW 21:00:06 79° SSW 21:00:28 76° S
ALOS 2 3.6 21:01:54 41° NNE 21:01:54 41° NNE 21:05:07 10° N
Cosmos 2082 Rocket 4.5 20:58:49 10° WNW 21:01:22 13° W 21:03:08 12° WSW
SME Rocket 3.7 21:01:31 10° NNE 21:07:13 74° N 21:07:13 74° N
Cosmos 1741 Rocket 4.2 21:02:22 10° NW 21:07:05 68° WNW 21:07:05 68° WNW
Cosmos 2297 Rocket 2.9 21:08:11 10° NW 21:13:41 46° NNE 21:14:40 42° ENE
COSMOS 2455 2.8 21:14:36 82° NE 21:14:36 82° NE 21:20:24 10° NE
NOSS 2-2 (C) 4.4 21:10:27 10° WNW 21:13:47 52° NW 21:13:47 52° NW
Meteor 2-3 Rocket 4.4 21:11:42 10° N 21:17:02 42° ENE 21:17:03 42° ENE
RESURS DK-1 4.4 21:19:22 24° NNE 21:19:22 24° NNE 21:21:12 10° NE
SJ 16-02 4.3 21:18:04 10° NNW 21:20:12 13° N 21:22:19 10° NE
Terra 3.4 21:21:44 27° W 21:21:44 27° W 21:25:35 10° NNW
Cosmos 2369 Rocket 3.3 21:28:45 34° ENE 21:28:45 34° ENE 21:32:10 10° NE
Timation 2 Rocket 4.0 21:22:09 10° NW 21:28:19 73° NE 21:28:43 71° ENE
Cosmos 2074 Rocket 4.3 21:22:53 10° N 21:29:05 55° ENE 21:29:19 55° ENE
Cosmos 2056 Rocket 4.2 21:31:06 49° NE 21:31:06 49° NE 21:34:55 10° NE
Cosmos 1825 4.3 21:26:35 10° NNW 21:28:20 26° NNW 21:28:20 26° NNW
ATLAS CENTAUR R/B 4.0 21:27:09 10° WNW 21:27:26 12° WNW 21:27:26 12° WNW
Meteor 2-8 Rocket 4.4 21:30:27 73° W 21:30:40 74° WNW 21:36:47 10° NNE
Cosmos 1709 Rocket 3.9 21:25:52 10° NNW 21:32:01 79° W 21:32:01 79° W
Cosmos 2263 Rocket 3.9 21:28:36 10° NW 21:33:31 30° N 21:38:28 10° ENE
Cosmos 2297 3.8 21:34:32 71° NNE 21:34:32 71° NNE 21:39:39 10° NE
Cosmos 2278 Rocket 3.3 21:34:28 10° WSW 21:39:52 43° NNW 21:45:17 10° NE
S3M 3.9 21:43:04 82° WNW 21:43:04 82° WNW 21:49:11 10° NNE
Cosmos 968 Rocket 4.1 21:41:01 10° NNW 21:45:48 54° NNE 21:45:48 54° NNE
Meteor 2-15 Rocket 4.4 21:49:08 82° NNE 21:49:08 82° NNE 21:55:03 10° NNE
USA 229 DEB 4.1 21:42:46 10° WNW 21:49:03 52° WSW 21:49:03 52° WSW
USA 229 4.1 21:42:52 10° WNW 21:49:09 53° WSW 21:49:09 53° WSW
NOSS 3-4 (A) 3.8 21:51:36 10° W 21:57:50 70° N 22:04:50 10° ENE
NOSS 3-4 (C) 3.8 21:51:42 10° W 21:57:57 70° N 22:04:56 10° ENE
Cosmos 2058 Rocket 4.5 22:00:09 36° NNW 22:00:09 36° NNW 22:03:08 10° N
Meteor 2-10 Rocket 4.0 22:00:41 65° NE 22:00:41 65° NE 22:05:33 10° NNE
Cosmos 1624 Rocket 4.5 22:02:28 58° N 22:02:28 58° N 22:06:54 10° NNE
NOSS 3-1 (A) 4.1 21:55:03 10° WNW 22:01:23 56° WSW 22:01:23 56° WSW
SL-16 R/B 3.8 22:05:31 27° E 22:07:45 34° NE 22:13:13 10° NNW
Cosmos 2227 Rocket 2.4 22:06:24 10° NW 22:11:40 66° NNE 22:11:40 66° NNE
Cosmos 1656 Rocket 4.5 22:16:30 42° ENE 22:16:30 42° ENE 22:20:19 10° NE
Cosmos 2184 Rocket 3.9 22:09:52 10° NNW 22:15:45 81° NNW 22:15:45 81° NNW
Cosmos 2315 Rocket 3.9 22:16:20 84° NNW 22:16:20 84° NNW 22:22:28 10° NNE
Cosmos 883 Rocket 4.5 22:16:26 76° WNW 22:16:26 76° WNW 22:22:39 10° NNE
ATLAS 2AS CENTAUR R/B 3.2 22:13:29 10° W 22:21:25 70° N 22:28:56 10° E
Cosmos 1943 Rocket 2.4 22:24:03 65° N 22:24:03 65° N 22:29:07 10° NE
ATLAS 5 CENTAUR R/B 4.2 22:34:32 13° ENE 22:34:32 13° ENE 22:35:18 10° ENE
Cosmos 1610 Rocket 4.4 22:27:38 10° NNW 22:33:37 82° NNE 22:33:37 82° NNE
Cosmos 2219 3.6 22:28:46 10° NW 22:33:19 58° NW 22:33:19 58° NW
Nimbus 7 Rocket 4.4 22:29:05 10° NNE 22:34:50 81° NNE 22:34:50 81° NNE
Cosmos 371 Rocket 4.3 22:42:29 44° NNW 22:42:29 44° NNW 22:46:26 10° NNE
CZ-4C R/B 2.6 22:45:17 65° WNW 22:46:05 74° NNW 22:53:10 10° ENE
RESURS DK-1 4.5 22:55:15 24° NNW 22:55:56 25° NNW 22:59:26 10° NE
Geosat 4.5 22:56:13 58° NNE 22:56:13 58° NNE 23:00:57 10° NW
Cosmos 2297 Rocket 2.9 22:52:25 10° NW 22:56:26 46° WNW 22:56:26 46° WNW
USA 234 3.8 22:51:45 10° E 22:56:08 44° ESE 22:56:08 44° ESE
SJ 16-02 3.5 22:56:44 10° NNW 23:00:22 24° NE 23:02:27 17° ENE
Meteor 2-3 Rocket 4.4 22:55:01 10° NNW 22:59:20 45° WNW 22:59:20 45° WNW
COSMOS 2455 3.6 22:57:42 27° WNW 23:00:48 50° NNW 23:06:41 10° ENE
Thor Agena Rocket 4.3 23:02:18 10° NNE 23:07:10 47° NW 23:07:10 47° NW
Cosmos 2221 4.1 23:09:06 32° NE 23:09:06 32° NE 23:11:46 10° NNE
Cosmos 2082 3.9 23:01:56 10° NW 23:06:50 66° NNW 23:06:50 66° NNW
Cosmos 2369 Rocket 2.6 23:10:31 56° NW 23:10:45 56° NW 23:16:24 10° NE
Cosmos 2154 Rocket 4.2 23:05:03 10° NNW 23:10:45 60° WNW 23:10:45 60° WNW
Cosmos 962 Rocket 4.4 23:12:00 10° NNW 23:18:00 78° WNW 23:18:00 78° WNW
Cosmos 2263 Rocket 2.9 23:13:08 10° NW 23:18:39 51° NE 23:22:19 21° ESE
Cosmos 1844 Rocket 4.4 23:17:04 10° NW 23:22:06 32° NNE 23:27:09 10° E
Cosmos 1777 Rocket 4.3 23:18:39 10° NNW 23:23:20 64° N 23:23:20 64° N
Cosmos 1980 Rocket 4.5 23:23:46 12° ESE 23:24:54 13° E 23:27:19 10° ENE
Cosmos 2278 Rocket 4.0 23:20:23 10° WNW 23:25:17 29° N 23:30:12 10° NE
Meteor 1-27 4.2 23:25:48 79° NNE 23:25:48 79° NNE 23:31:09 10° NNE
Sich 1 4.3 23:26:08 10° N 23:29:00 39° N 23:29:00 39° N
Cosmos 1452 Rocket 4.2 23:31:14 45° NW 23:31:19 45° NW 23:36:25 10° NNE
Cosmos 2341 Rocket 3.9 23:26:15 10° NNW 23:32:29 72° W 23:32:29 72° W
Cosmos 1110 Rocket 4.3 23:36:05 65° NNW 23:36:05 65° NNW 23:40:58 10° NNE
Cosmos 1818 4.4 23:39:49 42° E 23:39:49 42° E 23:44:01 10° ENE
Cosmos 1331 Rocket 4.2 23:40:09 65° NNW 23:40:09 65° NNW 23:44:52 10° NNE
Meteor 2-2 Rocket 4.3 23:40:40 71° ESE 23:40:44 71° E 23:46:36 10° NNE
Lacrosse 5 4.0 23:43:17 15° ESE 23:43:17 15° ESE 23:44:47 10° E
Nadezhda 1 Rocket 3.9 23:41:57 71° W 23:42:02 71° WNW 23:48:09 10° NNE
Cosmos 1302 Rocket 4.1 23:43:59 70° NE 23:43:59 70° NE 23:48:40 10° NE
Resurs 1-4 Rocket 3.0 23:40:33 10° NNE 23:45:29 38° E 23:45:52 38° ESE
PSLV R/B 4.4 23:41:22 10° NNE 23:44:49 49° N 23:44:49 49° N
COBE Rocket 4.1 23:47:29 74° NE 23:47:29 74° NE 23:52:25 10° NNW
Meteor 2-12 Rocket 4.5 23:41:21 10° NNW 23:47:00 63° WNW 23:47:00 63° WNW
Helios 1B rocket 3.6 23:43:31 10° NNE 23:46:22 43° NNE 23:46:22 43° NNE
NOSS 3-4 (A) 3.7 23:42:45 10° WNW 23:49:17 80° NNE 23:56:35 10° ESE
NOSS 3-4 (C) 3.7 23:42:52 10° WNW 23:49:23 80° NNE 23:56:41 10° ESE
Cosmos 1842 Rocket 4.4 23:51:54 50° N 23:51:54 50° N 23:55:19 10° NNE
SL-16 R/B 2.3 23:50:37 78° SSW 23:50:57 82° WSW 23:57:11 10° NNW
Cosmos 2227 4.4 23:45:25 10° NW 23:51:07 69° NE 23:53:14 39° ESE
CZ-2D R/B 2.9 23:46:49 10° NNE 23:51:51 41° E 23:52:17 40° ESE
